Weather History for Pendleton, OR

Change the Weather History Date:

Saturday, August 24, 2013

  Actual Average Record
Temperature  
Mean Temperature 69 °F 70 °F  
Max Temperature 84 °F 85 °F 105 °F (1898)
Min Temperature 54 °F 56 °F 32 °F (1904)
Degree Days  
Heating Degree Days 0 1  
Month to date heating degree days 0 1  
Since 1 June heating degree days 80 95  
Since 1 July heating degree days 0 12  
Cooling Degree Days 4 6  
Month to date cooling degree days 214 188  
Year to date cooling degree days 668 536  
Since 1 June cooling degree days 637 513  
Growing Degree Days 19 (Base 50)    
Moisture  
Dew Point 44 °F    
Average Humidity 41    
Maximum Humidity 57    
Minimum Humidity 25    
Precipitation  
Precipitation 0.00 in 0.02 in 0.64 in (1977)
Month to date precipitation 0.24 0.28  
Year to date precipitation 5.21 7.99  
Snow  
Snow 0.00 in 0.00 in 0.00 in (2002)
Month to date snowfall T 0.0  
Year to date snowfall 0.2 7.7  
Since 1 July snowfall T 0.0  
Snow Depth 0.00 in    
Sea Level Pressure  
Sea Level Pressure 29.79 in    
Wind  
Wind Speed 8 mph (WSW)    
Max Wind Speed 25 mph    
Max Gust Speed 33 mph    
Visibility 10 miles    
Events      
T = Trace of Precipitation, MM = Missing Value Source: NWS Daily Summary

Daily Weather History Graph

Daily Weather History Graph

Search for Another Location

Airport:

Trip Planner

Search our weather history database for the weather conditions in past years. The results will help you decide how hot, cold, wet, or windy it might be!

Date:

Astronomy

Aug. 24, 2013 Rise Set
Actual Time 6:07 AM PDT 7:47 PM PDT
Civil Twilight 5:35 AM PDT 8:18 PM PDT
Nautical Twilight 4:57 AM PDT 8:56 PM PDT
Astronomical Twilight 4:15 AM PDT 9:37 PM PDT
Moon 9:27 PM PDT (8/24) 10:27 AM PDT (8/24)
Length of Visible Light 14h 42m
Length of Day
13h 40m
Waning Gibbous, 83% of the Moon is Illuminated
Aug 24
Waning Gibbous
Aug 28
Last Quarter
Sep 5
New
Sep 12
First Quarter
Sep 19
Full

Hourly Weather History & Observations

Time (PDT) Temp. Dew Point Humidity Pressure Visibility Wind Dir Wind Speed Gust Speed Precip Events Conditions
12:53 AM 64.9 °F 39.0 °F 39% 29.79 in 10.0 mi SSE 4.6 mph - N/A   Clear
1:53 AM 64.0 °F 39.9 °F 41% 29.81 in 10.0 mi Calm Calm - N/A   Clear
2:53 AM 57.9 °F 37.9 °F 47% 29.81 in 10.0 mi East 4.6 mph - N/A   Clear
3:53 AM 59.0 °F 39.0 °F 48% 29.81 in 10.0 mi West 3.5 mph - N/A   Clear
4:53 AM 59.0 °F 41.0 °F 51% 29.81 in 10.0 mi Calm Calm - N/A   Clear
5:53 AM 55.0 °F 39.9 °F 57% 29.82 in 10.0 mi SSE 6.9 mph - N/A   Clear
6:53 AM 57.0 °F 42.1 °F 57% 29.82 in 10.0 mi SSE 6.9 mph - N/A   Clear
7:53 AM 63.0 °F 41.0 °F 45% 29.83 in 10.0 mi SSE 4.6 mph - N/A   Clear
8:53 AM 66.9 °F 42.1 °F 40% 29.82 in 10.0 mi Variable 4.6 mph - N/A   Clear
9:53 AM 73.0 °F 46.0 °F 38% 29.81 in 10.0 mi West 12.7 mph - N/A   Clear
10:53 AM 75.0 °F 45.0 °F 34% 29.81 in 10.0 mi WNW 4.6 mph 16.1 mph N/A   Clear
11:53 AM 75.9 °F 45.0 °F 33% 29.80 in 10.0 mi SW 8.1 mph - N/A   Clear
12:53 PM 80.1 °F 45.0 °F 29% 29.77 in 10.0 mi Variable 6.9 mph 16.1 mph N/A   Clear
1:53 PM 80.1 °F 45.0 °F 29% 29.76 in 10.0 mi North - - N/A   Clear
2:53 PM 82.0 °F 45.0 °F 27% 29.75 in 10.0 mi North - - N/A   Clear
3:53 PM 82.9 °F 45.0 °F 26% 29.73 in 10.0 mi North - - N/A   Clear
4:53 PM 84.0 °F 45.0 °F 25% 29.71 in 10.0 mi NNW 5.8 mph - N/A   Clear
5:53 PM 82.0 °F 46.0 °F 28% 29.72 in 10.0 mi WNW 8.1 mph - N/A   Clear
6:53 PM 79.0 °F 44.1 °F 29% 29.74 in 10.0 mi West 9.2 mph - N/A   Clear
7:53 PM 75.0 °F 45.0 °F 34% 29.73 in 10.0 mi NW 8.1 mph - N/A   Scattered Clouds
8:53 PM 73.0 °F 48.0 °F 41% 29.77 in 10.0 mi West 13.8 mph 23.0 mph N/A   Clear
9:53 PM 71.1 °F 48.0 °F 44% 29.79 in 10.0 mi West 23.0 mph 28.8 mph N/A   Clear
10:53 PM 69.1 °F 45.0 °F 42% 29.82 in 10.0 mi West 17.3 mph 29.9 mph N/A   Clear
11:53 PM 64.9 °F 45.0 °F 48% 29.83 in 10.0 mi SSW 3.5 mph - N/A   Clear